Regional Weather Roundup
Issued by NWS Albany, NY

Home | Current Version | Previous Version | Text Only | Print | Product List | Glossary On
Versions: 1 2 3 4 5 6 7 8 9 10 11 12 13 14 15 16 17 18 19 20 21 22 23 24 25 26 27
000
ASUS41 KALY 291610
RWRALY

NEW YORK STATE HOURLY WEATHER ROUNDUP
NATIONAL WEATHER SERVICE ALBANY NY
1200 PM EDT WED OCT 29 2014

NOTE: "FAIR" INDICATES FEW OR NO CLOUDS BELOW 12,000 FEET WITH NO
SIGNIFICANT WEATHER AND/OR NO OBSTRUCTIONS TO VISIBILITY.

NYZ032-033-038>043-046>054-057>066-NYZ062>081-291700-
EAST


CITY           SKY/WX    TMP DP  RH WIND       PRES   REMARKS
ALBANY         LGT RAIN  56  52  86 CALM      29.87S
GLENS FALLS    LGT RAIN  59  49  69 SW6       29.85R
POUGHKEEPSIE   CLOUDY    67  53  61 SW7       29.85S
MONTGOMERY     CLOUDY    66  50  56 W8        29.87R
WHITE PLAINS   CLOUDY    68  56  65 CALM      29.85F
ISLIP          CLOUDY    67  59  75 SW7       29.85F
NEW YORK CITY  CLOUDY    70  53  54 SW6       29.86F
CENTRAL PARK   CLOUDY    69  55  60 CALM      29.89F
$$

NYZ005>009-017-018-044>046-055-056-291700-
CENTRAL


CITY           SKY/WX    TMP DP  RH WIND       PRES   REMARKS
FULTON         CLOUDY    52  39  61 W9        29.91R
SYRACUSE       CLOUDY    54  40  59 W8        29.90S
ROME           CLOUDY    53  43  68 NW8       29.90S
ELMIRA         CLOUDY    55  42  61 W9        29.92F
BINGHAMTON     CLOUDY    53  40  61 W9        29.91S
MONTICELLO     CLOUDY    52  52 100 W8        29.92F
$$

NYZ026>034-041>043-291700-
NORTH


CITY           SKY/WX    TMP DP  RH WIND       PRES   REMARKS
WATERTOWN      CLOUDY    54  38  54 W15G22    29.88R
FORT DRUM      NOT AVBL
MASSENA        CLOUDY    56  41  57 SW15G25   29.83S
SARANAC LAKE   CLOUDY    48  41  76 CALM      29.82F
PLATTSBURGH    CLOUDY    58  43  57 VRB5      29.82R
$$

NYZ001>004-010>016-019>021-291700-
WEST


CITY           SKY/WX    TMP DP  RH WIND       PRES   REMARKS
NIAGARA FALLS  PTSUNNY   52  37  56 W15       29.90S
BUFFALO        CLOUDY    51  37  58 W12G21    29.91R
DUNKIRK        CLOUDY    50  42  74 SW12G22   29.94R
JAMESTOWN      CLOUDY    46  37  71 SW10      29.94S
WELLSVILLE     CLOUDY    49  39  68 W13G20    29.93S
ROCHESTER      CLOUDY    51  39  63 W6        29.91S
PENN YAN       CLOUDY    54  43  66 W8        29.91R
$$

             KEY
       WCI = WIND CHILL INDEX
       VSB = VISIBILITY
       HX  = HEAT INDEX
$$



USA.gov is the U.S. government's official web portal to all federal, state and local government web resources and services.